Year,Month,Day,Hour,Minute,Value (Times are PST for windspeed in km/hr)
2013,02,24,00,00,6.50
2013,02,24,00,01,9.70
2013,02,24,00,02,2.20
2013,02,24,00,03,3.40
2013,02,24,00,04,5.00
2013,02,24,00,05,7.50
2013,02,24,00,06,4.80
2013,02,24,00,07,7.40
2013,02,24,00,08,8.60
2013,02,24,00,09,9.70
2013,02,24,00,10,8.90
2013,02,24,00,11,6.40
2013,02,24,00,12,10.50
2013,02,24,00,13,8.00
2013,02,24,00,14,7.40
2013,02,24,00,15,9.40
2013,02,24,00,16,8.40
2013,02,24,00,17,6.90
2013,02,24,00,18,6.30
2013,02,24,00,19,7.30
2013,02,24,00,20,7.10
2013,02,24,00,21,7.00
2013,02,24,00,22,7.00
2013,02,24,00,23,4.50
2013,02,24,00,24,4.10
2013,02,24,00,25,3.80
2013,02,24,00,26,2.10
2013,02,24,00,27,3.40
2013,02,24,00,28,3.70
2013,02,24,00,29,4.60
2013,02,24,00,30,3.40
2013,02,24,00,31,4.70
2013,02,24,00,32,2.80
2013,02,24,00,33,2.20
2013,02,24,00,34,0.20
2013,02,24,00,35,0.00
2013,02,24,00,36,0.00
2013,02,24,00,37,0.00
2013,02,24,00,38,0.40
2013,02,24,00,39,3.20
2013,02,24,00,40,2.20
2013,02,24,00,41,1.30
2013,02,24,00,42,1.00
2013,02,24,00,43,0.10
2013,02,24,00,44,2.10
2013,02,24,00,45,2.70
2013,02,24,00,46,1.80
2013,02,24,00,47,1.80
2013,02,24,00,48,3.90
2013,02,24,00,49,3.30
2013,02,24,00,50,1.20
2013,02,24,00,51,4.10
2013,02,24,00,52,2.10
2013,02,24,00,53,5.40
2013,02,24,00,54,3.60
2013,02,24,00,55,1.20
2013,02,24,00,56,0.00
2013,02,24,00,57,0.60
2013,02,24,00,58,2.80
2013,02,24,00,59,3.10
2013,02,24,01,00,1.50
2013,02,24,01,01,2.30
2013,02,24,01,02,1.90
2013,02,24,01,03,0.50
2013,02,24,01,04,2.50
2013,02,24,01,05,2.50
2013,02,24,01,06,1.80
2013,02,24,01,07,2.00
2013,02,24,01,08,2.00
2013,02,24,01,09,0.40
2013,02,24,01,10,3.70
2013,02,24,01,11,2.90
2013,02,24,01,12,0.40
2013,02,24,01,13,4.60
2013,02,24,01,14,3.50
2013,02,24,01,15,2.40
2013,02,24,01,16,1.50
2013,02,24,01,17,1.40
2013,02,24,01,18,1.00
2013,02,24,01,19,0.00
2013,02,24,01,20,0.30
2013,02,24,01,21,0.10
2013,02,24,01,22,0.40
2013,02,24,01,23,2.30
2013,02,24,01,24,2.90
2013,02,24,01,25,3.20
2013,02,24,01,26,1.50
2013,02,24,01,27,4.50
2013,02,24,01,28,0.70
2013,02,24,01,29,1.20
2013,02,24,01,30,3.20
2013,02,24,01,31,4.40
2013,02,24,01,32,2.80
2013,02,24,01,33,2.00
2013,02,24,01,34,2.10
2013,02,24,01,35,3.70
2013,02,24,01,36,2.20
2013,02,24,01,37,2.70
2013,02,24,01,38,1.20
2013,02,24,01,39,2.90
2013,02,24,01,40,3.10
2013,02,24,01,41,5.10
2013,02,24,01,42,6.30
2013,02,24,01,43,3.70
2013,02,24,01,44,3.30
2013,02,24,01,45,3.90
2013,02,24,01,46,0.90
2013,02,24,01,47,2.30
2013,02,24,01,48,4.80
2013,02,24,01,49,4.50
2013,02,24,01,50,6.20
2013,02,24,01,51,5.40
2013,02,24,01,52,6.70
2013,02,24,01,53,4.40
2013,02,24,01,54,4.30
2013,02,24,01,55,4.00
2013,02,24,01,56,3.00
2013,02,24,01,57,3.00
2013,02,24,01,58,4.80
2013,02,24,01,59,6.30
2013,02,24,02,00,5.70
2013,02,24,02,01,4.00
2013,02,24,02,02,2.10
2013,02,24,02,03,3.10
2013,02,24,02,04,1.90
2013,02,24,02,05,0.50
2013,02,24,02,06,1.80
2013,02,24,02,07,0.00
2013,02,24,02,08,1.00
2013,02,24,02,09,0.00
2013,02,24,02,10,0.30
2013,02,24,02,11,3.40
2013,02,24,02,12,2.00
2013,02,24,02,13,5.30
2013,02,24,02,14,3.10
2013,02,24,02,15,3.70
2013,02,24,02,16,2.10
2013,02,24,02,17,3.80
2013,02,24,02,18,2.10
2013,02,24,02,19,2.00
2013,02,24,02,20,0.50
2013,02,24,02,21,0.10
2013,02,24,02,22,0.90
2013,02,24,02,23,1.20
2013,02,24,02,24,2.30
2013,02,24,02,25,2.40
2013,02,24,02,26,4.70
2013,02,24,02,27,3.50
2013,02,24,02,28,0.80
2013,02,24,02,29,4.90
2013,02,24,02,30,3.10
2013,02,24,02,31,2.80
2013,02,24,02,32,3.20
2013,02,24,02,33,3.50
2013,02,24,02,34,3.70
2013,02,24,02,35,2.10
2013,02,24,02,36,0.40
2013,02,24,02,37,0.90
2013,02,24,02,38,0.40
2013,02,24,02,39,1.60
2013,02,24,02,40,1.20
2013,02,24,02,41,4.80
2013,02,24,02,42,3.80
2013,02,24,02,43,0.90
2013,02,24,02,44,1.50
2013,02,24,02,45,3.30
2013,02,24,02,46,4.10
2013,02,24,02,47,4.40
2013,02,24,02,48,3.00
2013,02,24,02,49,4.90
2013,02,24,02,50,3.40
2013,02,24,02,51,4.80
2013,02,24,02,52,4.80
2013,02,24,02,53,2.80
2013,02,24,02,54,3.70
2013,02,24,02,55,2.50
2013,02,24,02,56,1.60
2013,02,24,02,57,2.20
2013,02,24,02,58,2.70
2013,02,24,02,59,3.80
2013,02,24,03,00,1.80
2013,02,24,03,01,2.50
2013,02,24,03,02,1.00
2013,02,24,03,03,2.10
2013,02,24,03,04,1.50
2013,02,24,03,05,0.20
2013,02,24,03,06,1.80
2013,02,24,03,07,2.30
2013,02,24,03,08,1.60
2013,02,24,03,09,1.20
2013,02,24,03,10,1.70
2013,02,24,03,11,0.80
2013,02,24,03,12,0.50
2013,02,24,03,13,0.20
2013,02,24,03,14,0.50
2013,02,24,03,15,1.40
2013,02,24,03,16,0.10
2013,02,24,03,17,1.50
2013,02,24,03,18,2.30
2013,02,24,03,19,0.80
2013,02,24,03,20,0.50
2013,02,24,03,21,2.80
2013,02,24,03,22,0.50
2013,02,24,03,23,2.40
2013,02,24,03,24,1.20
2013,02,24,03,25,0.50
2013,02,24,03,26,1.20
2013,02,24,03,27,1.60
2013,02,24,03,28,1.50
2013,02,24,03,29,0.80
2013,02,24,03,30,0.50
2013,02,24,03,31,1.80
2013,02,24,03,32,4.10
2013,02,24,03,33,3.40
2013,02,24,03,34,1.20
2013,02,24,03,35,1.50
2013,02,24,03,36,1.80
2013,02,24,03,37,2.40
2013,02,24,03,38,2.70
2013,02,24,03,39,0.20
2013,02,24,03,40,0.20
2013,02,24,03,41,0.10
2013,02,24,03,42,0.60
2013,02,24,03,43,2.80
2013,02,24,03,44,0.80
2013,02,24,03,45,0.80
2013,02,24,03,46,1.20
2013,02,24,03,47,2.10
2013,02,24,03,48,5.40
2013,02,24,03,49,3.80
2013,02,24,03,50,4.10
2013,02,24,03,51,2.90
2013,02,24,03,52,2.60
2013,02,24,03,53,3.40
2013,02,24,03,54,6.60
2013,02,24,03,55,4.10
2013,02,24,03,56,3.90
2013,02,24,03,57,3.10
2013,02,24,03,58,3.40
2013,02,24,03,59,4.80
2013,02,24,04,00,6.80
2013,02,24,04,01,4.50
2013,02,24,04,02,2.80
2013,02,24,04,03,1.70
2013,02,24,04,04,1.00
2013,02,24,04,05,1.30
2013,02,24,04,06,1.90
2013,02,24,04,07,2.60
2013,02,24,04,08,1.20
2013,02,24,04,09,2.40
2013,02,24,04,10,3.40
2013,02,24,04,11,4.30
2013,02,24,04,12,1.40
2013,02,24,04,13,0.80
2013,02,24,04,14,1.10
2013,02,24,04,15,2.80
2013,02,24,04,16,2.40
2013,02,24,04,17,2.10
2013,02,24,04,18,1.70
2013,02,24,04,19,3.70
2013,02,24,04,20,3.20
2013,02,24,04,21,5.00
2013,02,24,04,22,4.00
2013,02,24,04,23,3.30
2013,02,24,04,24,3.40
2013,02,24,04,25,3.00
2013,02,24,04,26,1.50
2013,02,24,04,27,3.10
2013,02,24,04,28,4.40
2013,02,24,04,29,3.20
2013,02,24,04,30,3.90
2013,02,24,04,31,1.70
2013,02,24,04,32,3.20
2013,02,24,04,33,3.40
2013,02,24,04,34,6.70
2013,02,24,04,35,4.20
2013,02,24,04,36,7.00
2013,02,24,04,37,5.80
2013,02,24,04,38,3.20
2013,02,24,04,39,0.40
2013,02,24,04,40,2.30
2013,02,24,04,41,2.90
2013,02,24,04,42,3.10
2013,02,24,04,43,3.00
2013,02,24,04,44,3.70
2013,02,24,04,45,3.80
2013,02,24,04,46,2.50
2013,02,24,04,47,1.80
2013,02,24,04,48,3.00
2013,02,24,04,49,3.70
2013,02,24,04,50,1.30
2013,02,24,04,51,1.20
2013,02,24,04,52,1.20
2013,02,24,04,53,0.80
2013,02,24,04,54,3.10
2013,02,24,04,55,1.50
2013,02,24,04,56,1.50
2013,02,24,04,57,1.20
2013,02,24,04,58,0.40
2013,02,24,04,59,0.40
2013,02,24,05,00,2.30
2013,02,24,05,01,0.60
2013,02,24,05,02,0.80
2013,02,24,05,03,1.60
2013,02,24,05,04,4.80
2013,02,24,05,05,3.40
2013,02,24,05,06,0.30
2013,02,24,05,07,2.40
2013,02,24,05,08,2.10
2013,02,24,05,09,2.00
2013,02,24,05,10,3.70
2013,02,24,05,11,4.40
2013,02,24,05,12,4.50
2013,02,24,05,13,4.90
2013,02,24,05,14,2.50
2013,02,24,05,15,6.30
2013,02,24,05,16,4.40
2013,02,24,05,17,3.40
2013,02,24,05,18,1.90
2013,02,24,05,19,4.20
2013,02,24,05,20,4.80
2013,02,24,05,21,5.20
2013,02,24,05,22,3.80
2013,02,24,05,23,0.90
2013,02,24,05,24,2.80
2013,02,24,05,25,4.70
2013,02,24,05,26,2.30
2013,02,24,05,27,1.60
2013,02,24,05,28,0.80
2013,02,24,05,29,0.30
2013,02,24,05,30,0.90
2013,02,24,05,31,1.70
2013,02,24,05,32,1.90
2013,02,24,05,33,3.80
2013,02,24,05,34,4.80
2013,02,24,05,35,3.50
2013,02,24,05,36,1.60
2013,02,24,05,37,0.20
2013,02,24,05,38,0.40
2013,02,24,05,39,4.80
2013,02,24,05,40,2.60
2013,02,24,05,41,5.80
2013,02,24,05,42,4.50
2013,02,24,05,43,4.60
2013,02,24,05,44,5.40
2013,02,24,05,45,7.70
2013,02,24,05,46,4.10
2013,02,24,05,47,3.20
2013,02,24,05,48,1.80
2013,02,24,05,49,1.60
2013,02,24,05,50,3.00
2013,02,24,05,51,3.10
2013,02,24,05,52,2.30
2013,02,24,05,53,0.70
2013,02,24,05,54,1.70
2013,02,24,05,55,0.70
2013,02,24,05,56,0.80
2013,02,24,05,57,1.00
2013,02,24,05,58,1.40
2013,02,24,05,59,1.40
2013,02,24,06,00,0.10
2013,02,24,06,01,0.70
2013,02,24,06,02,1.30
2013,02,24,06,03,1.20
2013,02,24,06,04,0.20
2013,02,24,06,05,1.20
2013,02,24,06,06,2.30
2013,02,24,06,07,3.10
2013,02,24,06,08,1.80
2013,02,24,06,09,1.80
2013,02,24,06,10,1.60
2013,02,24,06,11,3.30
2013,02,24,06,12,2.20
2013,02,24,06,13,0.40
2013,02,24,06,14,0.10
2013,02,24,06,15,0.60
2013,02,24,06,16,1.70
2013,02,24,06,17,2.20
2013,02,24,06,18,0.80
2013,02,24,06,19,1.10
2013,02,24,06,20,3.60
2013,02,24,06,21,2.40
2013,02,24,06,22,2.40
2013,02,24,06,23,0.20
2013,02,24,06,24,1.00
2013,02,24,06,25,0.60
2013,02,24,06,26,1.30
2013,02,24,06,27,0.00
2013,02,24,06,28,1.60
2013,02,24,06,29,1.40
2013,02,24,06,30,3.80
2013,02,24,06,31,1.80
2013,02,24,06,32,0.00
2013,02,24,06,33,1.90
2013,02,24,06,34,2.70
2013,02,24,06,35,4.60
2013,02,24,06,36,4.80
2013,02,24,06,37,3.10
2013,02,24,06,38,3.80
2013,02,24,06,39,4.60
2013,02,24,06,40,5.50
2013,02,24,06,41,3.70
2013,02,24,06,42,6.20
2013,02,24,06,43,4.10
2013,02,24,06,44,4.40
2013,02,24,06,45,2.40
2013,02,24,06,46,3.70
2013,02,24,06,47,4.10
2013,02,24,06,48,2.60
2013,02,24,06,49,3.80
2013,02,24,06,50,2.90
2013,02,24,06,51,2.20
2013,02,24,06,52,3.00
2013,02,24,06,53,8.70
2013,02,24,06,54,7.30
2013,02,24,06,55,3.80
2013,02,24,06,56,3.40
2013,02,24,06,57,3.10
2013,02,24,06,58,1.90
2013,02,24,06,59,4.80
2013,02,24,07,00,5.10
2013,02,24,07,01,5.50
2013,02,24,07,02,6.40
2013,02,24,07,03,6.10
2013,02,24,07,04,2.80
2013,02,24,07,05,4.20
2013,02,24,07,06,9.20
2013,02,24,07,07,6.70
2013,02,24,07,08,3.50
2013,02,24,07,09,6.00
2013,02,24,07,10,4.10
2013,02,24,07,11,5.80
2013,02,24,07,12,2.90
2013,02,24,07,13,0.90
2013,02,24,07,14,0.00
2013,02,24,07,15,3.00
2013,02,24,07,16,4.20
2013,02,24,07,17,5.80
2013,02,24,07,18,7.80
2013,02,24,07,19,6.10
2013,02,24,07,20,6.70
2013,02,24,07,21,4.70
2013,02,24,07,22,4.60
2013,02,24,07,23,7.80
2013,02,24,07,24,6.30
2013,02,24,07,25,6.30
2013,02,24,07,26,5.10
2013,02,24,07,27,8.60
2013,02,24,07,28,4.70
2013,02,24,07,29,4.60
2013,02,24,07,30,2.10
2013,02,24,07,31,4.40
2013,02,24,07,32,3.40
2013,02,24,07,33,0.70
2013,02,24,07,34,4.50
2013,02,24,07,35,5.80
2013,02,24,07,36,6.30
2013,02,24,07,37,7.10
2013,02,24,07,38,6.50
2013,02,24,07,39,3.40
2013,02,24,07,40,3.90
2013,02,24,07,41,3.30
2013,02,24,07,42,4.00
2013,02,24,07,43,4.40
2013,02,24,07,44,6.30
2013,02,24,07,45,4.30
2013,02,24,07,46,6.30
2013,02,24,07,47,6.70
2013,02,24,07,48,5.00
2013,02,24,07,49,4.10
2013,02,24,07,50,3.80
2013,02,24,07,51,4.50
2013,02,24,07,52,6.30
2013,02,24,07,53,6.20
2013,02,24,07,54,5.60
2013,02,24,07,55,6.10
2013,02,24,07,56,4.70
2013,02,24,07,57,6.10
2013,02,24,07,58,8.20
2013,02,24,07,59,3.60
2013,02,24,08,00,4.20
2013,02,24,08,01,3.00
2013,02,24,08,02,7.10
2013,02,24,08,03,4.20
2013,02,24,08,04,6.50
2013,02,24,08,05,4.90
2013,02,24,08,06,5.90
2013,02,24,08,07,6.70
2013,02,24,08,08,6.10
2013,02,24,08,09,5.90
2013,02,24,08,10,6.10
2013,02,24,08,11,6.80
2013,02,24,08,12,8.70
2013,02,24,08,13,7.20
2013,02,24,08,14,4.10
2013,02,24,08,15,5.90
2013,02,24,08,16,4.00
2013,02,24,08,17,6.30
2013,02,24,08,18,7.10
2013,02,24,08,19,8.10
2013,02,24,08,20,6.30
2013,02,24,08,21,4.40
2013,02,24,08,22,5.30
2013,02,24,08,23,5.10
2013,02,24,08,24,6.40
2013,02,24,08,25,5.80
2013,02,24,08,26,4.90
2013,02,24,08,27,3.80
2013,02,24,08,28,5.70
2013,02,24,08,29,3.00
2013,02,24,08,30,6.20
2013,02,24,08,31,5.20
2013,02,24,08,32,2.70
2013,02,24,08,33,3.80
2013,02,24,08,34,5.00
2013,02,24,08,35,3.40
2013,02,24,08,36,4.40
2013,02,24,08,37,3.70
2013,02,24,08,38,5.50
2013,02,24,08,39,4.90
2013,02,24,08,40,9.60
2013,02,24,08,41,6.40
2013,02,24,08,42,4.40
2013,02,24,08,43,4.00
2013,02,24,08,44,5.40
2013,02,24,08,45,5.00
2013,02,24,08,46,6.30
2013,02,24,08,47,4.60
2013,02,24,08,48,2.60
2013,02,24,08,49,5.10
2013,02,24,08,50,3.80
2013,02,24,08,51,5.40
2013,02,24,08,52,5.30
2013,02,24,08,53,4.80
2013,02,24,08,54,5.00
2013,02,24,08,55,4.30
2013,02,24,08,56,1.10
2013,02,24,08,57,0.50
2013,02,24,08,58,2.00
2013,02,24,08,59,4.90
2013,02,24,09,00,5.50
2013,02,24,09,01,5.60
2013,02,24,09,02,4.10
2013,02,24,09,03,3.10
2013,02,24,09,04,4.00
2013,02,24,09,05,3.10
2013,02,24,09,06,1.90
2013,02,24,09,07,4.20
2013,02,24,09,08,5.50
2013,02,24,09,09,6.20
2013,02,24,09,10,6.80
2013,02,24,09,11,2.30
2013,02,24,09,12,1.90
2013,02,24,09,13,1.50
2013,02,24,09,14,5.70
2013,02,24,09,15,5.30
2013,02,24,09,16,4.50
2013,02,24,09,17,6.10
2013,02,24,09,18,7.30
2013,02,24,09,19,3.90
2013,02,24,09,20,5.90
2013,02,24,09,21,6.10
2013,02,24,09,22,3.40
2013,02,24,09,23,4.30
2013,02,24,09,24,2.00
2013,02,24,09,25,3.30
2013,02,24,09,26,3.90
2013,02,24,09,27,2.60
2013,02,24,09,28,1.00
2013,02,24,09,29,3.20
2013,02,24,09,30,2.10
2013,02,24,09,31,3.40
2013,02,24,09,32,2.50
2013,02,24,09,33,3.40
2013,02,24,09,34,4.80
2013,02,24,09,35,3.50
2013,02,24,09,36,3.40
2013,02,24,09,37,5.70
2013,02,24,09,38,6.60
2013,02,24,09,39,5.10
2013,02,24,09,40,9.90
2013,02,24,09,41,7.70
2013,02,24,09,42,8.40
2013,02,24,09,43,9.20
2013,02,24,09,44,9.40
2013,02,24,09,45,9.10
2013,02,24,09,46,7.40
2013,02,24,09,47,7.70
2013,02,24,09,48,3.70
2013,02,24,09,49,3.00
2013,02,24,09,50,4.50
2013,02,24,09,51,9.50
2013,02,24,09,52,5.00
2013,02,24,09,53,3.30
2013,02,24,09,54,2.20
2013,02,24,09,55,3.80
2013,02,24,09,56,8.20
2013,02,24,09,57,4.50
2013,02,24,09,58,5.50
2013,02,24,09,59,6.60
2013,02,24,10,00,6.40
2013,02,24,10,01,5.50
2013,02,24,10,02,8.00
2013,02,24,10,03,7.00
2013,02,24,10,04,5.60
2013,02,24,10,05,5.70
2013,02,24,10,06,7.40
2013,02,24,10,07,6.10
2013,02,24,10,08,3.80
2013,02,24,10,09,4.40
2013,02,24,10,10,4.50
2013,02,24,10,11,4.10
2013,02,24,10,12,6.00
2013,02,24,10,13,8.60
2013,02,24,10,14,4.10
2013,02,24,10,15,6.50
2013,02,24,10,16,3.40
2013,02,24,10,17,6.60
2013,02,24,10,18,6.50
2013,02,24,10,19,9.40
2013,02,24,10,20,8.10
2013,02,24,10,21,8.60
2013,02,24,10,22,8.40
2013,02,24,10,23,9.70
2013,02,24,10,24,6.00
2013,02,24,10,25,6.90
2013,02,24,10,26,6.80
2013,02,24,10,27,8.80
2013,02,24,10,28,10.20
2013,02,24,10,29,6.70
2013,02,24,10,30,7.00
2013,02,24,10,31,8.30
2013,02,24,10,32,13.20
2013,02,24,10,33,9.20
2013,02,24,10,34,10.00
2013,02,24,10,35,4.40
2013,02,24,10,36,9.60
2013,02,24,10,37,6.30
2013,02,24,10,38,7.90
2013,02,24,10,39,8.00
2013,02,24,10,40,11.80
2013,02,24,10,41,6.80
2013,02,24,10,42,5.00
2013,02,24,10,43,5.60
2013,02,24,10,44,6.70
2013,02,24,10,45,4.30
2013,02,24,10,46,9.20
2013,02,24,10,47,9.70
2013,02,24,10,48,10.30
2013,02,24,10,49,7.50
2013,02,24,10,50,5.10
2013,02,24,10,51,6.60
2013,02,24,10,52,12.30
2013,02,24,10,53,12.00
2013,02,24,10,54,10.50
2013,02,24,10,55,9.40
2013,02,24,10,56,6.40
2013,02,24,10,57,7.50
2013,02,24,10,58,5.80
2013,02,24,10,59,8.70
2013,02,24,11,00,10.00
2013,02,24,11,01,9.30
2013,02,24,11,02,8.00
2013,02,24,11,03,10.00
2013,02,24,11,04,6.50
2013,02,24,11,05,12.60
2013,02,24,11,06,13.00
2013,02,24,11,07,9.70
2013,02,24,11,08,11.30
2013,02,24,11,09,8.10
2013,02,24,11,10,7.90
2013,02,24,11,11,12.80
2013,02,24,11,12,7.10
2013,02,24,11,13,9.00
2013,02,24,11,14,5.80
2013,02,24,11,15,6.10
2013,02,24,11,16,7.90
2013,02,24,11,17,5.90
2013,02,24,11,18,7.90
2013,02,24,11,19,10.50
2013,02,24,11,20,8.60
2013,02,24,11,21,9.90
2013,02,24,11,22,12.80
2013,02,24,11,23,13.00
2013,02,24,11,24,9.40
2013,02,24,11,25,6.50
2013,02,24,11,26,4.30
2013,02,24,11,27,5.70
2013,02,24,11,28,10.20
2013,02,24,11,29,8.60
2013,02,24,11,30,8.60
2013,02,24,11,31,5.20
2013,02,24,11,32,5.40
2013,02,24,11,33,6.40
2013,02,24,11,34,6.40
2013,02,24,11,35,9.40
2013,02,24,11,36,5.60
2013,02,24,11,37,4.50
2013,02,24,11,38,5.70
2013,02,24,11,39,10.00
2013,02,24,11,40,12.90
2013,02,24,11,41,15.40
2013,02,24,11,42,13.90
2013,02,24,11,43,12.80
2013,02,24,11,44,8.20
2013,02,24,11,45,13.60
2013,02,24,11,46,8.80
2013,02,24,11,47,8.30
2013,02,24,11,48,5.10
2013,02,24,11,49,5.50
2013,02,24,11,50,5.50
2013,02,24,11,51,5.60
2013,02,24,11,52,9.30
2013,02,24,11,53,14.60
2013,02,24,11,54,10.40
2013,02,24,11,55,6.10
2013,02,24,11,56,6.30
2013,02,24,11,57,5.90
2013,02,24,11,58,10.80
2013,02,24,11,59,11.30
2013,02,24,12,00,11.00
2013,02,24,12,01,8.90
2013,02,24,12,02,6.10
2013,02,24,12,03,8.70
2013,02,24,12,04,9.60
2013,02,24,12,05,7.40
2013,02,24,12,06,10.50
2013,02,24,12,07,10.50
2013,02,24,12,08,8.70
2013,02,24,12,09,10.40
2013,02,24,12,10,11.80
2013,02,24,12,11,11.30
2013,02,24,12,12,4.60
2013,02,24,12,13,6.50
2013,02,24,12,14,2.90
2013,02,24,12,15,6.40
2013,02,24,12,16,4.50
2013,02,24,12,17,3.00
2013,02,24,12,18,6.30
2013,02,24,12,19,5.90
2013,02,24,12,20,13.30
2013,02,24,12,21,10.00
2013,02,24,12,22,5.30
2013,02,24,12,23,7.50
2013,02,24,12,24,5.60
2013,02,24,12,25,10.00
2013,02,24,12,26,12.10
2013,02,24,12,27,6.80
2013,02,24,12,28,9.70
2013,02,24,12,29,10.20
2013,02,24,12,30,8.00
2013,02,24,12,31,8.30
2013,02,24,12,32,7.50
2013,02,24,12,33,5.40
2013,02,24,12,34,5.10
2013,02,24,12,35,4.10
2013,02,24,12,36,6.20
2013,02,24,12,37,6.10
2013,02,24,12,38,8.70
2013,02,24,12,39,8.10
2013,02,24,12,40,10.30
2013,02,24,12,41,8.10
2013,02,24,12,42,11.60
2013,02,24,12,43,12.40
2013,02,24,12,44,7.10
2013,02,24,12,45,12.60
2013,02,24,12,46,8.70
2013,02,24,12,47,12.00
2013,02,24,12,48,8.80
2013,02,24,12,49,11.10
2013,02,24,12,50,6.70
2013,02,24,12,51,4.00
2013,02,24,12,52,4.60
2013,02,24,12,53,14.70
2013,02,24,12,54,6.40
2013,02,24,12,55,6.40
2013,02,24,12,56,11.60
2013,02,24,12,57,11.30
2013,02,24,12,58,6.20
2013,02,24,12,59,11.90
2013,02,24,13,00,7.40
2013,02,24,13,01,10.20
2013,02,24,13,02,11.10
2013,02,24,13,03,6.40
2013,02,24,13,04,8.50
2013,02,24,13,05,7.60
2013,02,24,13,06,5.70
2013,02,24,13,07,7.70
2013,02,24,13,08,7.80
2013,02,24,13,09,8.40
2013,02,24,13,10,7.20
2013,02,24,13,11,5.80
2013,02,24,13,12,4.10
2013,02,24,13,13,7.30
2013,02,24,13,14,7.40
2013,02,24,13,15,6.20
2013,02,24,13,16,7.10
2013,02,24,13,17,5.00
2013,02,24,13,18,6.60
2013,02,24,13,19,6.40
2013,02,24,13,20,5.20
2013,02,24,13,21,5.90
2013,02,24,13,22,7.10
2013,02,24,13,23,5.40
2013,02,24,13,24,5.30
2013,02,24,13,25,6.10
2013,02,24,13,26,13.90
2013,02,24,13,27,10.10
2013,02,24,13,28,4.40
2013,02,24,13,29,9.50
2013,02,24,13,30,8.00
2013,02,24,13,31,8.30
2013,02,24,13,32,11.10
2013,02,24,13,33,10.20
2013,02,24,13,34,7.40
2013,02,24,13,35,9.70
2013,02,24,13,36,10.00
2013,02,24,13,37,11.20
2013,02,24,13,38,11.00
2013,02,24,13,39,9.00
2013,02,24,13,40,7.40
2013,02,24,13,41,10.00
2013,02,24,13,42,9.10
2013,02,24,13,43,5.20
2013,02,24,13,44,7.50
2013,02,24,13,45,4.90
2013,02,24,13,46,8.10
2013,02,24,13,47,8.80
2013,02,24,13,48,6.70
2013,02,24,13,49,10.20
2013,02,24,13,50,7.90
2013,02,24,13,51,6.10
2013,02,24,13,52,8.20
2013,02,24,13,53,8.90
2013,02,24,13,54,7.90
2013,02,24,13,55,11.50
2013,02,24,13,56,5.80
2013,02,24,13,57,10.40
2013,02,24,13,58,7.60
2013,02,24,13,59,10.00
2013,02,24,14,00,8.10
2013,02,24,14,01,10.60
2013,02,24,14,02,13.60
2013,02,24,14,03,14.10
2013,02,24,14,04,8.50
2013,02,24,14,05,10.70
2013,02,24,14,06,9.20
2013,02,24,14,07,6.90
2013,02,24,14,08,6.40
2013,02,24,14,09,7.00
2013,02,24,14,10,8.50
2013,02,24,14,11,9.70
2013,02,24,14,12,11.50
2013,02,24,14,13,6.90
2013,02,24,14,14,13.00
2013,02,24,14,15,9.00
2013,02,24,14,16,5.90
2013,02,24,14,17,6.20
2013,02,24,14,18,7.40
2013,02,24,14,19,11.30
2013,02,24,14,20,11.20
2013,02,24,14,21,12.30
2013,02,24,14,22,12.60
2013,02,24,14,23,9.10
2013,02,24,14,24,5.80
2013,02,24,14,25,8.00
2013,02,24,14,26,7.50
2013,02,24,14,27,8.30
2013,02,24,14,28,6.10
2013,02,24,14,29,11.60
2013,02,24,14,30,10.00
2013,02,24,14,31,14.10
2013,02,24,14,32,9.50
2013,02,24,14,33,6.80
2013,02,24,14,34,10.00
2013,02,24,14,35,10.40
2013,02,24,14,36,12.00
2013,02,24,14,37,10.00
2013,02,24,14,38,7.70
2013,02,24,14,39,9.80
2013,02,24,14,40,8.60
2013,02,24,14,41,10.70
2013,02,24,14,42,6.10
2013,02,24,14,43,6.10
2013,02,24,14,44,8.80
2013,02,24,14,45,11.00
2013,02,24,14,46,12.30
2013,02,24,14,47,11.70
2013,02,24,14,48,9.00
2013,02,24,14,49,10.20
2013,02,24,14,50,10.10
2013,02,24,14,51,14.00
2013,02,24,14,52,11.20
2013,02,24,14,53,9.70
2013,02,24,14,54,11.60
2013,02,24,14,55,11.40
2013,02,24,14,56,9.20
2013,02,24,14,57,8.00
2013,02,24,14,58,9.30
2013,02,24,14,59,9.70
2013,02,24,15,00,5.00
2013,02,24,15,01,6.30
2013,02,24,15,02,12.60
2013,02,24,15,03,12.50
2013,02,24,15,04,11.20
2013,02,24,15,05,13.40
2013,02,24,15,06,13.10
2013,02,24,15,07,5.40
2013,02,24,15,08,6.30
2013,02,24,15,09,8.40
2013,02,24,15,10,10.60
2013,02,24,15,11,10.60
2013,02,24,15,12,8.80
2013,02,24,15,13,7.90
2013,02,24,15,14,9.30
2013,02,24,15,15,7.30
2013,02,24,15,16,6.50
2013,02,24,15,17,5.20
2013,02,24,15,18,10.30
2013,02,24,15,19,11.70
2013,02,24,15,20,8.30
2013,02,24,15,21,11.10
2013,02,24,15,22,9.40
2013,02,24,15,23,5.70
2013,02,24,15,24,9.00
2013,02,24,15,25,9.40
2013,02,24,15,26,4.10
2013,02,24,15,27,6.10
2013,02,24,15,28,15.80
2013,02,24,15,29,11.70
2013,02,24,15,30,14.40
2013,02,24,15,31,9.80
2013,02,24,15,32,12.30
2013,02,24,15,33,11.70
2013,02,24,15,34,8.30
2013,02,24,15,35,6.70
2013,02,24,15,36,8.90
2013,02,24,15,37,9.50
2013,02,24,15,38,13.90
2013,02,24,15,39,8.40
2013,02,24,15,40,8.10
2013,02,24,15,41,11.80
2013,02,24,15,42,9.90
2013,02,24,15,43,10.30
2013,02,24,15,44,4.80
2013,02,24,15,45,3.70
2013,02,24,15,46,9.90
2013,02,24,15,47,5.90
2013,02,24,15,48,7.60
2013,02,24,15,49,10.60
2013,02,24,15,50,13.20
2013,02,24,15,51,10.60
2013,02,24,15,52,6.20
2013,02,24,15,53,5.40
2013,02,24,15,54,6.60
2013,02,24,15,55,9.10
2013,02,24,15,56,10.00
2013,02,24,15,57,7.20
2013,02,24,15,58,6.40
2013,02,24,15,59,9.00
2013,02,24,16,00,6.10
2013,02,24,16,01,9.10
2013,02,24,16,02,5.60
2013,02,24,16,03,7.20
2013,02,24,16,04,7.90
2013,02,24,16,05,7.40
2013,02,24,16,06,9.50
2013,02,24,16,07,9.40
2013,02,24,16,08,9.50
2013,02,24,16,09,6.70
2013,02,24,16,10,9.60
2013,02,24,16,11,3.90
2013,02,24,16,12,6.20
2013,02,24,16,13,7.70
2013,02,24,16,14,6.80
2013,02,24,16,15,4.80
2013,02,24,16,16,11.20
2013,02,24,16,17,7.30
2013,02,24,16,18,7.80
2013,02,24,16,19,12.40
2013,02,24,16,20,8.10
2013,02,24,16,21,5.10
2013,02,24,16,22,11.10
2013,02,24,16,23,9.00
2013,02,24,16,24,6.80
2013,02,24,16,25,7.40
2013,02,24,16,26,10.10
2013,02,24,16,27,6.10
2013,02,24,16,28,6.90
2013,02,24,16,29,7.20
2013,02,24,16,30,6.70
2013,02,24,16,31,4.00
2013,02,24,16,32,4.10
2013,02,24,16,33,3.80
2013,02,24,16,34,7.60
2013,02,24,16,35,9.10
2013,02,24,16,36,8.90
2013,02,24,16,37,7.10
2013,02,24,16,38,9.70
2013,02,24,16,39,6.70
2013,02,24,16,40,3.90
2013,02,24,16,41,6.50
2013,02,24,16,42,7.40
2013,02,24,16,43,7.70
2013,02,24,16,44,5.00
2013,02,24,16,45,10.30
2013,02,24,16,46,9.00
2013,02,24,16,47,9.40
2013,02,24,16,48,9.80
2013,02,24,16,49,8.20
2013,02,24,16,50,8.70
2013,02,24,16,51,6.30
2013,02,24,16,52,8.90
2013,02,24,16,53,8.10
2013,02,24,16,54,4.80
2013,02,24,16,55,8.60
2013,02,24,16,56,7.10
2013,02,24,16,57,7.90
2013,02,24,16,58,5.60
2013,02,24,16,59,10.30
2013,02,24,17,00,10.80
2013,02,24,17,01,12.90
2013,02,24,17,02,6.70
2013,02,24,17,03,5.50
2013,02,24,17,04,4.70
2013,02,24,17,05,8.50
2013,02,24,17,06,8.70
2013,02,24,17,07,5.10
2013,02,24,17,08,7.50
2013,02,24,17,09,9.90
2013,02,24,17,10,7.80
2013,02,24,17,11,8.70
2013,02,24,17,12,7.60
2013,02,24,17,13,13.50
2013,02,24,17,14,4.80
2013,02,24,17,15,10.10
2013,02,24,17,16,7.20
2013,02,24,17,17,3.80
2013,02,24,17,18,5.10
2013,02,24,17,19,4.00
2013,02,24,17,20,5.70
2013,02,24,17,21,4.90
2013,02,24,17,22,3.70
2013,02,24,17,23,5.60
2013,02,24,17,24,5.50
2013,02,24,17,25,12.90
2013,02,24,17,26,8.70
2013,02,24,17,27,6.60
2013,02,24,17,28,8.30
2013,02,24,17,29,9.40
2013,02,24,17,30,5.60
2013,02,24,17,31,3.50
2013,02,24,17,32,6.40
2013,02,24,17,33,3.40
2013,02,24,17,34,3.70
2013,02,24,17,35,3.80
2013,02,24,17,36,5.10
2013,02,24,17,37,7.20
2013,02,24,17,38,9.50
2013,02,24,17,39,5.30
2013,02,24,17,40,6.80
2013,02,24,17,41,13.10
2013,02,24,17,42,9.10
2013,02,24,17,43,7.80
2013,02,24,17,44,5.50
2013,02,24,17,45,6.60
2013,02,24,17,46,8.70
2013,02,24,17,47,4.20
2013,02,24,17,48,6.40
2013,02,24,17,49,5.40
2013,02,24,17,50,4.70
2013,02,24,17,51,8.50
2013,02,24,17,52,6.30
2013,02,24,17,53,6.70
2013,02,24,17,54,4.80
2013,02,24,17,55,5.80
2013,02,24,17,56,5.30
2013,02,24,17,57,5.00
2013,02,24,17,58,5.60
2013,02,24,17,59,5.10
2013,02,24,18,00,5.80